Location: Berkeley
(37.8716°N, 122.2727°W)
Time: 03:53:05
(UTC-07:00)

N. Korean satellite - Visible Passes

Search period start: 30 March 2017 00:00
Search period end: 09 April 2017 00:00
Orbit: 461 x 520 km, 97.2° (Epoch: 28 March)

Date Brightness Start Highest point End Pass type
(mag) Time Alt. Az. Time Alt. Az. Time Alt. Az.
30 Mar 9.7 20:27:27 10° SW 20:29:37 15° W 20:31:47 10° NW visible
31 Mar 8.8 20:03:48 10° SSW 20:06:56 30° W 20:10:04 10° NW visible
03 Apr 9.8 20:30:59 10° SW 20:32:50 14° W 20:34:40 10° WNW visible
04 Apr 9.0 20:07:06 10° SSW 20:10:06 26° W 20:13:05 10° NW visible
07 Apr 9.9 20:34:26 10° WSW 20:35:55 12° W 20:37:23 10° WNW visible
08 Apr 9.2 20:10:17 10° SSW 20:13:09 24° W 20:15:59 10° NW visible
